Change the Weather History Date:

Sunday, March 31, 2013

  Actual Average Record
Temperature  
Mean Temperature 30 °F -  
Max Temperature 39 °F 56 °F 71 °F (1998)
Min Temperature 22 °F 39 °F 22 °F (2013)
Degree Days  
Heating Degree Days 34    
Moisture  
Dew Point 22 °F    
Average Humidity 66    
Maximum Humidity 93    
Minimum Humidity 36    
Precipitation  
Precipitation 0.00 in - - ()
Sea Level Pressure  
Sea Level Pressure 29.79 in    
Wind  
Wind Speed 4 mph ()    
Max Wind Speed 9 mph    
Max Gust Speed 22 mph    
Visibility 4.9 miles    
Events      
Averages and records for this station are not official NWS values.
T = Trace of Precipitation, MM = Missing Value Source: Averaged Metar Reports

Daily Weather History Graph

Daily Weather History Graph

Search for Another Location

Airport or City:

Trip Planner

Search our weather history database for the weather conditions in past years. The results will help you decide how hot, cold, wet, or windy it might be!

Date:

Astronomy

Mar. 31, 2013 Rise Set
Actual Time 7:16 AM CEST 8:05 PM CEST
Civil Twilight 6:44 AM CEST 8:37 PM CEST
Nautical Twilight 6:06 AM CEST 9:15 PM CEST
Astronomical Twilight 5:26 AM CEST 9:55 PM CEST
Moon 12:13 AM CET (3/31) 9:28 AM CEST (3/31)
Length of Visible Light 13h 52m
Length of Day
12h 49m
Waning Gibbous, 80% of the Moon is Illuminated
Mar 31
Waning Gibbous
Apr 3
Last Quarter
Apr 10
New
Apr 18
First Quarter
Apr 25
Full

Hourly Weather History & Observations

Time (CEST) Temp. Windchill Dew Point Humidity Pressure Visibility Wind Dir Wind Speed Gust Speed Precip Events Conditions
12:00 AM 32.0 °F - 21.2 °F 64% 29.74 in 4.3 mi Calm Calm - N/A   Unknown
12:30 AM 30.2 °F 26.7 °F 21.2 °F 69% 29.74 in 5.0 mi North 3.5 mph - N/A   Unknown
1:00 AM 30 °F - 21 °F 60% 29.81 in 5 mi North 2.3 mph - -   Clear
1:00 AM 30.2 °F - 21.2 °F 69% 29.74 in 5.0 mi Variable 2.3 mph - N/A   Mostly Cloudy
1:30 AM 30.2 °F 23.4 °F 21.2 °F 69% 29.74 in 5.0 mi North 6.9 mph - N/A   Scattered Clouds
3:00 AM 28.4 °F 22.2 °F 21.2 °F 74% 29.74 in 3.7 mi North 5.8 mph - N/A   Partly Cloudy
3:30 AM 28.4 °F 20.4 °F 21.2 °F 74% 29.74 in 3.7 mi North 8.1 mph - N/A   Unknown
4:00 AM 26.6 °F 19.1 °F 21.2 °F 80% 29.74 in 3.1 mi North 6.9 mph - N/A   Mist
4:30 AM 24.8 °F 19.1 °F 19.4 °F 80% 29.74 in 3.1 mi NNW 4.6 mph - N/A   Mist
5:00 AM 24.8 °F 17.9 °F 19.4 °F 80% 29.74 in - NW 5.8 mph - N/A   Mist
5:30 AM 24.8 °F 17.9 °F 21.2 °F 86% 29.74 in - NNW 5.8 mph - N/A   Mist
6:00 AM 23.0 °F 18.4 °F 19.4 °F 86% 29.74 in - NNW 3.5 mph - N/A   Mist
6:30 AM 23.0 °F 15.8 °F 21.2 °F 93% 29.77 in - North 5.8 mph - N/A   Mist
7:00 AM 23.0 °F 17.0 °F 19.4 °F 86% 29.77 in 1.7 mi NW 4.6 mph - N/A   Mist
7:30 AM 23.0 °F - 21.2 °F 93% 29.77 in 1.7 mi Variable 1.2 mph - N/A   Mist
8:00 AM 24 °F - 22 °F 87% 29.87 in 2 mi SW 1.2 mph - -   Mist
8:00 AM 23.0 °F - 21.2 °F 93% 29.77 in 1.7 mi Variable 1.2 mph - N/A   Mist
8:30 AM 24.8 °F 20.5 °F 23.0 °F 93% 29.80 in 1.6 mi WNW 3.5 mph - N/A   Mist
9:00 AM 26.6 °F 21.2 °F 24.8 °F 93% 29.80 in 1.6 mi North 4.6 mph - N/A   Mist
9:30 AM 28.4 °F 24.6 °F 24.8 °F 86% 29.80 in - North 3.5 mph - N/A   Mist
10:00 AM 30.2 °F 26.7 °F 24.8 °F 80% 29.80 in 2.8 mi North 3.5 mph - N/A   Partly Cloudy
10:30 AM 32.0 °F 25.6 °F 24.8 °F 75% 29.80 in 3.1 mi North 6.9 mph - N/A   Partly Cloudy
11:00 AM 33.8 °F 28.6 °F 24.8 °F 70% 29.80 in 3.7 mi North 5.8 mph - N/A   Mostly Cloudy
11:30 AM 35.6 °F 29.2 °F 24.8 °F 65% 29.80 in 3.7 mi NNE 8.1 mph - N/A   Mostly Cloudy
12:00 PM 35.6 °F 29.9 °F 23.0 °F 60% 29.80 in 4.3 mi NNE 6.9 mph 21.9 mph N/A   Mostly Cloudy
12:30 PM 37.4 °F 31.4 °F 23.0 °F 56% 29.80 in 5.0 mi NNE 8.1 mph - N/A   Partly Cloudy
1:00 PM 37.4 °F 32.8 °F 21.2 °F 52% 29.80 in 5.6 mi NE 5.8 mph - N/A   Mostly Cloudy
1:30 PM 37.4 °F 31.4 °F 23.0 °F 56% 29.80 in 5.0 mi North 8.1 mph - N/A   Mostly Cloudy
2:00 PM 39 °F - 22 °F 36% 29.85 in 6 mi NE 8.1 mph - -   Clear
2:00 PM 39.2 °F 33.6 °F 21.2 °F 49% 29.80 in 5.6 mi NE 8.1 mph - N/A   Overcast
2:30 PM 39.2 °F 35.0 °F 21.2 °F 49% 29.80 in 6.2 mi NE 5.8 mph - N/A   Overcast
3:00 PM 37.4 °F 34.9 °F 21.2 °F 52% 29.80 in 6.2 mi ENE 3.5 mph - N/A   Overcast
3:30 PM 39.2 °F 35.0 °F 21.2 °F 49% 29.80 in 6.2 mi NE 5.8 mph - N/A   Overcast
4:00 PM 39.2 °F 33.6 °F 21.2 °F 49% 29.80 in 6.2 mi NNE 8.1 mph - N/A   Overcast
4:30 PM 39.2 °F 33.6 °F 21.2 °F 49% 29.80 in 6.2 mi North 8.1 mph - N/A   Overcast
5:00 PM 37.4 °F 31.4 °F 21.2 °F 52% 29.80 in 6.2 mi North 8.1 mph - N/A   Overcast
5:30 PM 37.4 °F 32.1 °F 21.2 °F 52% 29.80 in 6.2 mi NNE 6.9 mph - N/A   Overcast
6:00 PM 39.2 °F 34.2 °F 21.2 °F 49% 29.80 in 6.2 mi NNE 6.9 mph - N/A   Overcast
6:30 PM 37.4 °F 31.4 °F 21.2 °F 52% 29.80 in 6.2 mi ENE 8.1 mph - N/A   Unknown
7:00 PM 37.4 °F 32.1 °F 23.0 °F 56% 29.80 in 6.2 mi NE 6.9 mph - N/A   Unknown
7:30 PM 37.4 °F 30.8 °F 21.2 °F 52% 29.80 in 6.2 mi NE 9.2 mph - N/A   Unknown
8:00 PM 36 °F - 22 °F 45% 29.85 in 9 mi NE 5.8 mph - -   Clear
8:00 PM 37.4 °F 32.8 °F 23.0 °F 56% 29.80 in 6.2 mi NE 5.8 mph - N/A   Unknown
8:30 PM 35.6 °F 32.8 °F 21.2 °F 56% 29.80 in 6.2 mi NE 3.5 mph - N/A   Unknown
9:00 PM 33.8 °F 29.6 °F 21.2 °F 60% 29.80 in 6.2 mi NE 4.6 mph - N/A   Unknown
9:30 PM 33.8 °F 29.6 °F 21.2 °F 60% 29.80 in 6.2 mi ENE 4.6 mph - N/A   Unknown
10:00 PM 32.0 °F 27.5 °F 21.2 °F 64% 29.80 in 6.2 mi ENE 4.6 mph - N/A   Unknown
10:30 PM 32.0 °F 27.5 °F 21.2 °F 64% 29.80 in 6.2 mi ENE 4.6 mph - N/A   Unknown
11:00 PM 32.0 °F 25.6 °F 21.2 °F 64% 29.77 in 6.2 mi ENE 6.9 mph - N/A   Unknown
11:30 PM 32.0 °F 26.4 °F 21.2 °F 64% 29.77 in 6.2 mi East 5.8 mph - N/A   Unknown
12:00 AM 32.0 °F 26.4 °F 21.2 °F 64% 29.77 in 6.2 mi ENE 5.8 mph - N/A   Unknown
12:30 AM 32.0 °F 26.4 °F 21.2 °F 64% 29.77 in 6.2 mi ENE 5.8 mph - N/A   Unknown